This demonstration page uses our WeatherBlox Daily Observations layout. Learn more.

Left ArrowRight Arrow

Hourly Observations for January 30, 2016

Temp ( °F °C ) Dew Point ( °F °C ) Humidity (%) Winds ( mph kmh ) Pressure ( in mb ) Visibility ( mi km ) Precip ( " mm )
12:59 am 00:59 Clear 34 1.1 19 -7.2 54 54 NNW 10 17 30.06 1018 10 16 0.00 0.00
1:59 am 01:59 Clear 33 0.6 17 -8.3 52 52 NW 7 11 30.09 1019 10 16 0.00 0.00
2:59 am 02:59 Clear 32 0 17 -8.3 54 54 W 7 11 30.14 1021 10 16 0.00 0.00
3:59 am 03:59 Clear 31 -0.6 18 -7.8 59 59 WNW 6 9 30.14 1021 10 16 0.00 0.00
4:59 am 04:59 Clear 30 -1.1 18 -7.8 61 61 NW 5 7 30.14 1021 10 16 0.00 0.00
5:59 am 05:59 Clear 30 -1.1 18 -7.8 61 61 Calm 30.16 1021 10 16 0.00 0.00
6:59 am 06:59 Clear 27 -2.8 20 -6.7 75 75 ESE 3 6 30.16 1021 10 16 0.00 0.00
7:59 am 07:59 Sunny 30 -1.1 22 -5.6 72 72 Calm 30.19 1022 10 16 0.00 0.00
8:59 am 08:59 Mostly Sunny 37 2.8 23 -5 57 57 E 8 13 30.20 1023 10 16 0.00 0.00
9:59 am 09:59 Mostly Sunny 40 4.4 21 -6.1 47 47 VRB 3 6 30.23 1024 10 16 0.00 0.00
10:59 am 10:59 Mostly Sunny 45 7.2 22 -5.6 40 40 VRB 7 11 30.21 1023 10 16 0.00 0.00
11:59 am 11:59 Partly Cloudy 47 8.3 18 -7.8 31 31 SSE 10 17 30.18 1022 10 16 0.00 0.00
12:59 pm 12:59 Partly Cloudy 49 9.4 17 -8.3 28 28 S 10 17 30.14 1021 10 16 0.00 0.00
1:59 pm 13:59 Partly Cloudy 51 10.6 17 -8.3 26 26 SSW 9 15 30.13 1020 10 16 0.00 0.00
2:59 pm 14:59 Mostly Cloudy 51 10.6 17 -8.3 26 26 SSW 6 9 30.14 1021 10 16 0.00 0.00
3:59 pm 15:59 Partly Cloudy 53 11.7 20 -6.7 27 27 SSW 12 19 30.12 1020 10 16 0.00 0.00
4:59 pm 16:59 Partly Cloudy 50 10 19 -7.2 29 29 SSW 8 13 30.11 1020 10 16 0.00 0.00
5:59 pm 17:59 Partly Cloudy 49 9.4 21 -6.1 33 33 S 7 11 30.12 1020 10 16 0.00 0.00
6:59 pm 18:59 Mostly Clear 47 8.3 24 -4.4 41 41 S 8 13 30.13 1020 10 16 0.00 0.00
7:59 pm 19:59 Partly Cloudy 46 7.8 26 -3.3 46 46 S 8 13 30.13 1020 10 16 0.00 0.00
8:59 pm 20:59 Mostly Clear 46 7.8 30 -1.1 54 54 SSW 10 17 30.12 1020 10 16 0.00 0.00
9:59 pm 21:59 Clear 45 7.2 31 -0.6 58 58 SSW 10 17 30.11 1020 10 16 0.00 0.00
10:59 pm 22:59 Clear 45 7.2 32 0 61 61 SSW 9 15 30.11 1020 10 16 0.00 0.00
11:59 pm 23:59 Clear 44 6.7 33 0.6 65 65 S 6 9 30.10 1019 10 16 0.00 0.00

Powered by AerisWeather